Flag Weather past 2 weeks in Mexico City, Federal District, Mexico

Now
55 °F

Passing clouds.


Feels Like: 55 °F
Forecast: 52 / 74 °F
Wind: No wind

Location: Mexico City / Licenci

Current Time: Nov 24, 2014 at 3:40:25 AM

Latest Report: Nov 24, 2014 at 2:49 AM


Visibility: 10 mi

Pressure: 29.75 "Hg

Humidity: 77%

Dew point: 48 °F

Location of Mexico CityLocation

Historic Weather in Mexico City — Graph

°F

Mexico City temperature yesterday

Maximum temperature yesterday: 79 °F (at 2:10 PM)
Minimum temperature yesterday: 52 °F (at 5:46 AM)
Average temperature yesterday: 65 °F

Past Weeks' High & Low Weather Summary

 TemperatureHumidityPressure
High79 °F (Nov 23, 2:10 PM)94% (Nov 12, 6:46 AM)30.43 "Hg (Nov 12, 6:46 AM)
Low46 °F (Nov 10, 4:42 AM)15% (Nov 23, 3:30 PM)29.60 "Hg (Nov 23, 2:45 PM)
Average61 °F63%30.20 "Hg
* Reported Nov 9 3:51 AM — Nov 24 1:47 AM, Mexico City, Weather by CustomWeather, © 2014

Note: Actual official high and low records may vary slightly from our data, if they occured in-between our weather recording intervals... More about our weather records

Advertising

Mexico City weather history for previous 24 hours

 ConditionsComfort  
Time TempWeatherWind HumidityBarometerVisibility
1:47 AM
Nov 24
57 °FPassing clouds.No wind72%30.24 "Hg10 mi
10:59 PM
Nov 23
61 °FClear.7 mph63%30.26 "Hg12 mi
8:45 PM64 °FClear.3 mph60%29.79 "Hg15 mi
7:45 PM64 °FClear.10 mph60%30.21 "Hg15 mi
6:45 PM66 °FClear.13 mph52%30.18 "Hg15 mi
5:24 PM70 °FSunny.14 mph43%30.14 "Hg12 mi
4:46 PM73 °FSunny.13 mph33%30.14 "Hg12 mi
3:45 PM79 °FSunny.3 mph16%30.12 "Hg10 mi
3:30 PM79 °FSunny.3 mph15%30.13 "Hg10 mi
2:45 PM75 °FSunny.5 mph16%29.60 "Hg10 mi
2:25 PM75 °FSunny.6 mph18%30.14 "Hg10 mi
2:10 PM79 °FSunny.No wind18%30.14 "Hg10 mi
1:43 PM75 °FScattered clouds.3 mph19%30.16 "Hg8 mi
12:45 PM75 °FScattered clouds.No wind25%30.21 "Hg8 mi
9:31 AM63 °FSunny.No wind59%30.31 "Hg12 mi
8:20 AM54 °FSunny.5 mph77%30.30 "Hg15 mi
7:23 AM54 °FSunny.5 mph77%30.27 "Hg15 mi
5:46 AM52 °FClear.5 mph82%29.79 "Hg15 mi
4:46 AM54 °FClear.No wind77%30.25 "Hg15 mi
3:47 AM55 °FClear.5 mph72%30.26 "Hg15 mi
Weather by CustomWeather, © 2014

See weather overviewHow to use our weather pages